GFSGBSN_sfc_rhum_153.txt.gz
RH
86 87 89 89 90 92 92 96 97 96 96 95 94 93 91 91 92 92 93 95 95 95 96 94 95 94 82 78 61 40 60 50 30 28 28 30 32 27 21 22 19 21 18 17 17 18 21
84 86 87 88 90 89 90 91 93 97 98 98 96 95 94 92 93 93 94 96 96 96 96 94 95 94 90 96 42 41 35 33 32 31 33 36 29 20 18 22 24 20 18 17 17 19 22
77 81 87 88 88 89 89 91 92 92 93 94 94 96 96 96 97 97 96 96 97 97 95 94 95 90 91 80 52 52 50 49 46 44 44 32 24 25 22 22 22 19 21 20 16 18 24
79 79 82 88 90 91 89 89 91 92 90 90 94 95 96 95 94 93 93 94 94 95 95 95 94 89 91 52 54 58 56 56 47 48 47 37 27 23 24 21 22 23 27 28 21 16 19
82 81 78 81 89 91 88 87 92 91 88 88 90 95 95 97 96 95 95 94 93 93 93 93 97 98 92 58 62 52 56 60 49 43 43 29 23 24 30 31 32 35 30 26 21 16 18
75 81 85 82 82 84 85 87 87 93 92 91 92 94 96 96 97 96 95 95 92 95 86 79 81 97 83 65 46 42 51 56 55 47 49 44 33 33 39 35 39 36 31 32 23 18 21
76 78 80 82 86 84 83 83 87 91 92 91 91 92 96 95 97 96 96 94 92 99 94 90 82 83 66 58 47 46 39 47 45 52 66 42 52 52 41 35 31 32 32 34 27 18 20
81 80 80 78 80 81 82 83 89 91 90 89 89 89 93 96 97 96 98 91 87 90 94 64 68 68 66 66 81 58 44 38 41 54 56 55 53 50 39 34 37 40 40 38 30 19 20
83 82 80 79 78 77 78 80 86 89 90 90 90 88 87 90 97 98 97 93 94 94 98 73 68 64 59 60 79 73 56 48 43 44 59 64 54 39 34 36 40 41 42 38 30 23 24
83 83 80 77 77 78 80 83 85 86 88 91 92 91 90 91 99 97 95 92 97 91 99 75 78 68 58 57 70 55 51 53 52 50 43 59 50 52 52 49 40 47 34 30 26 28 33
83 83 82 78 78 82 84 82 82 85 84 87 88 92 93 98 96 94 86 91 97 95 98 52 66 50 54 64 57 61 51 59 63 51 52 62 56 59 62 55 38 43 32 29 30 32 36
81 81 80 78 82 81 83 83 83 84 86 84 83 87 93 99 99 92 94 95 96 100 95 56 55 72 76 67 64 55 69 58 54 50 46 51 40 41 43 40 36 31 32 35 39 38 51
82 80 78 81 82 81 80 81 80 82 84 85 84 84 95 95 94 89 93 99 100 98 49 54 51 68 74 78 76 66 76 85 76 87 73 52 50 45 48 64 50 34 36 58 58 55 58
79 79 79 78 77 79 80 81 82 80 81 83 85 87 92 92 92 94 96 99 99 69 56 36 39 49 75 76 76 68 75 88 71 66 73 75 81 62 54 59 63 38 40 71 86 68 55
77 75 77 76 75 76 78 80 80 82 81 82 84 97 97 97 94 93 98 99 95 66 48 44 40 51 63 56 58 68 80 82 72 66 86 89 77 53 50 47 52 54 51 40 63 92 84
70 74 74 75 75 75 76 76 77 78 80 81 95 98 90 91 96 98 100 97 89 74 57 49 51 52 53 44 55 71 69 68 64 61 61 78 96 65 52 35 48 56 37 66 97 96 93
68 72 75 74 75 75 75 75 76 75 74 77 95 99 84 92 95 100 98 98 72 58 57 62 54 61 55 46 42 58 58 54 60 57 65 69 78 78 59 50 48 59 74 90 91 95 94
71 72 76 78 75 74 74 74 74 74 76 79 96 100 88 93 100 100 97 82 67 59 63 63 62 56 57 53 49 51 63 57 43 41 71 74 88 99 75 58 36 43 51 76 98 98 86
70 70 74 77 76 76 76 74 75 75 75 98 98 99 93 99 99 98 96 79 66 69 64 68 70 59 58 59 60 53 56 59 56 45 48 61 95 93 78 60 40 64 64 49 66 81 88
70 72 70 71 75 77 76 75 75 74 74 94 98 99 96 98 98 99 97 91 78 55 63 65 73 71 72 72 64 63 60 59 57 54 75 71 87 85 80 68 70 55 49 50 64 99 95
74 74 74 74 73 74 74 74 75 75 74 94 99 97 89 97 93 97 92 98 83 78 59 63 70 80 81 82 78 74 64 62 54 56 56 62 84 95 85 72 70 77 86 64 70 78 74
75 76 76 76 76 75 74 75 75 74 73 96 99 99 96 93 89 99 96 88 85 75 60 67 76 61 78 88 77 73 72 69 61 57 57 67 87 83 92 69 72 96 85 75 66 59 58
77 77 76 78 78 77 76 75 77 76 78 99 98 96 97 78 88 84 90 88 90 82 64 49 58 66 82 79 69 65 72 73 72 64 75 77 90 93 86 71 82 97 86 76 62 59 52
81 80 80 80 80 79 78 76 76 77 78 98 98 97 98 93 89 83 75 76 89 94 98 69 53 63 59 59 83 88 91 88 84 82 74 91 87 86 95 87 96 69 60 52 52 54 51
82 83 84 83 83 81 79 79 77 76 78 97 99 96 98 96 73 68 70 70 67 83 88 94 66 57 60 84 86 93 95 99 90 90 88 87 90 95 98 95 78 58 60 59 60 54 51
82 83 84 84 84 83 81 80 79 77 78 92 97 96 98 99 82 67 78 81 92 96 97 97 81 66 80 92 90 92 92 82 93 93 83 90 88 89 99 94 93 69 46 50 48 69 50
84 83 84 84 85 85 84 82 81 79 79 91 97 86 96 99 80 78 96 93 96 98 98 89 86 96 82 93 98 92 82 70 86 92 96 98 99 95 96 94 86 60 48 54 69 64 54
85 86 85 84 84 85 85 85 85 85 79 88 92 89 91 98 79 74 70 73 81 90 96 93 95 97 100 99 96 99 99 98 98 76 94 94 98 98 95 96 89 58 54 60 59 60 55
80 85 86 86 83 84 85 86 87 89 84 80 93 92 89 97 89 77 68 65 71 73 92 93 99 97 93 96 97 98 100 99 98 97 95 93 78 91 81 79 67 58 55 56 56 54 61

GFSGBSN_sfc_rhum_156.txt.gz
RH
86 87 88 89 90 90 92 94 98 98 97 96 96 95 93 92 92 92 93 95 96 95 96 96 94 94 86 86 67 42 66 48 31 29 31 34 36 31 25 22 21 24 20 20 18 20 28
85 87 87 87 89 88 88 90 93 95 96 97 98 97 96 94 93 93 94 96 96 97 96 95 94 94 88 91 48 47 52 54 44 43 41 46 38 25 23 23 26 23 22 21 18 20 27
79 82 87 88 88 88 88 89 90 90 92 94 94 95 95 95 97 97 97 98 98 97 97 95 94 91 95 82 57 52 52 56 55 50 54 41 34 29 26 25 24 23 24 21 18 18 22
80 79 80 88 90 91 90 88 89 89 88 88 92 94 96 96 95 94 93 92 93 94 95 94 94 91 95 56 54 61 61 61 56 57 54 51 40 34 26 24 24 27 29 30 21 18 20
80 84 80 84 90 92 92 87 87 91 88 87 86 91 96 95 96 95 94 94 94 92 93 93 94 94 89 62 66 56 62 68 57 57 55 39 34 27 31 34 36 37 35 29 24 19 24
75 80 83 83 83 84 85 84 85 85 92 90 89 91 95 96 96 97 96 96 92 94 88 82 82 97 90 69 56 49 58 62 61 59 54 48 38 38 38 36 52 37 36 33 25 20 22
76 78 82 82 84 83 83 84 87 90 90 89 89 90 93 96 96 97 97 94 91 99 91 92 87 87 72 63 56 56 50 57 56 60 71 49 67 64 51 39 37 35 33 31 29 22 26
82 82 82 80 81 80 81 83 87 90 90 88 89 88 89 91 96 97 99 95 88 88 93 71 67 63 61 68 83 62 52 52 58 73 67 60 69 56 51 40 38 41 44 41 36 30 25
83 83 80 79 79 80 78 80 85 87 91 91 92 90 89 87 92 97 94 91 91 90 95 74 72 67 62 57 78 72 63 64 53 59 67 74 63 48 52 52 50 47 46 43 40 30 26
84 85 84 80 80 81 81 81 85 85 89 91 91 91 91 90 88 95 92 91 95 94 96 74 81 70 62 63 72 52 49 60 68 65 50 57 47 52 54 56 43 54 39 37 39 39 45
86 85 85 81 81 84 85 83 81 83 85 89 90 91 92 94 96 95 89 96 96 95 97 55 71 53 59 66 62 66 51 60 78 64 49 61 66 59 62 55 46 56 39 40 41 37 39
85 85 83 82 84 85 84 84 82 82 85 86 86 86 89 97 99 94 93 94 94 99 96 61 63 80 83 73 69 68 74 63 65 78 57 52 46 57 60 52 51 40 45 39 40 41 52
82 84 81 82 83 82 80 82 80 80 81 83 85 85 96 96 96 93 92 97 100 97 52 54 58 78 81 84 81 74 90 84 88 95 94 64 53 46 43 60 50 46 41 65 60 60 58
82 81 86 83 82 82 80 82 82 80 79 80 82 85 89 96 97 94 96 98 98 67 63 43 44 65 83 80 85 77 93 93 81 81 81 84 87 52 51 56 63 53 41 70 73 70 62
72 77 79 80 84 81 78 78 82 81 79 80 81 97 98 96 97 97 97 99 89 77 58 58 44 55 64 65 72 78 88 93 83 76 88 83 77 60 52 48 47 63 59 48 70 94 93
66 68 77 81 80 78 72 79 79 77 78 79 95 96 98 92 96 99 100 86 94 78 70 64 66 56 82 53 72 77 77 72 80 74 70 85 93 71 55 47 48 53 47 75 98 97 95
68 70 71 79 79 76 76 79 79 76 75 78 95 98 85 95 97 100 99 96 76 63 58 78 79 73 64 56 43 63 59 55 61 67 74 75 92 82 76 83 74 80 79 94 93 99 94
68 68 72 77 79 77 76 76 77 78 77 86 97 99 93 98 100 100 99 82 68 68 62 60 75 77 73 62 55 61 67 52 45 60 78 82 92 99 87 61 48 66 86 97 99 99 99
72 71 70 73 76 80 79 78 78 79 76 98 98 95 93 100 99 99 83 98 72 71 63 78 80 76 70 84 68 57 54 62 66 60 59 79 98 99 97 82 63 78 71 78 83 100 98
73 73 69 65 74 80 80 80 78 78 78 94 98 99 94 100 98 93 92 86 87 69 67 61 65 75 75 99 78 73 65 60 60 58 81 80 92 94 90 70 71 87 76 74 87 99 98
77 76 74 74 72 73 79 80 78 78 78 93 99 97 89 99 85 92 98 96 85 79 61 60 65 65 78 80 95 88 70 61 58 65 73 87 99 98 93 76 73 74 76 75 82 88 93
77 77 76 75 75 72 72 77 76 78 76 96 98 99 94 98 80 95 83 86 92 71 75 82 80 62 65 77 81 95 88 79 71 60 67 84 98 96 98 82 82 85 82 83 84 71 81
78 78 79 77 76 75 75 77 78 77 81 99 99 92 94 79 81 84 82 85 87 98 79 57 68 88 72 65 65 67 83 90 91 97 82 91 98 98 96 75 84 99 87 75 73 64 62
80 79 79 79 77 77 77 76 77 78 77 96 97 97 97 97 95 87 74 67 82 72 95 84 90 99 68 58 78 85 79 81 88 95 82 99 99 98 98 98 96 70 67 64 66 61 55
87 83 80 80 80 79 79 78 78 78 77 96 98 95 97 98 72 68 72 70 62 58 63 68 64 70 73 68 86 95 95 94 75 77 79 84 90 98 98 97 81 64 62 64 71 67 53
85 86 83 83 82 81 81 80 79 78 77 90 98 95 96 98 86 63 73 73 82 83 80 74 73 78 83 100 99 97 96 80 94 86 87 89 87 90 100 96 96 62 50 55 47 70 53
86 85 82 81 84 83 83 83 82 80 79 89 95 86 94 98 87 76 93 85 93 95 97 86 89 96 84 99 99 97 88 64 83 89 90 98 98 95 90 87 85 62 50 50 72 62 51
84 84 84 82 84 85 85 85 84 82 79 90 94 86 81 97 87 75 65 78 84 91 96 88 89 98 99 99 98 98 98 92 94 77 78 83 90 94 93 94 86 59 60 60 56 59 55
84 86 85 84 82 85 86 86 85 84 81 86 99 89 84 96 92 75 65 68 74 72 77 98 96 95 95 100 96 94 98 99 98 98 96 96 86 99 89 79 67 59 60 60 56 53 57

GFSGBSN_sfc_rhum_159.txt.gz
RH
86 86 86 87 89 87 87 92 96 97 98 97 96 96 94 94 92 92 92 94 95 94 95 94 93 92 75 77 58 41 68 60 38 33 36 37 36 23 21 18 17 18 16 16 15 14 17
86 86 87 87 88 87 86 89 92 94 94 95 96 96 97 96 94 94 93 94 96 96 94 94 93 90 79 88 43 45 51 48 45 42 42 41 38 23 22 19 18 18 18 17 16 15 26
79 83 85 88 89 87 85 88 89 88 90 92 93 94 95 94 95 96 96 97 97 96 96 96 93 83 92 81 50 48 47 54 50 50 52 44 35 34 24 26 20 18 20 17 16 14 18
81 80 81 87 91 92 91 86 86 86 85 84 85 92 94 95 95 94 94 94 93 93 93 95 94 87 95 53 49 57 52 61 54 54 53 46 38 36 31 22 22 23 22 25 18 15 17
81 81 82 84 90 92 93 89 85 85 87 85 85 86 91 94 94 95 95 95 94 92 91 92 96 91 89 58 66 55 56 66 55 55 57 46 45 45 24 31 37 30 33 27 21 16 20
78 82 84 85 87 87 88 89 86 85 86 89 86 87 91 94 95 94 96 94 91 94 88 84 85 98 81 64 57 52 52 59 58 55 54 58 41 34 33 41 48 42 32 26 25 17 19
79 81 83 86 86 84 81 82 87 90 89 89 88 88 89 92 95 96 97 94 89 94 97 86 86 83 71 61 55 53 49 51 56 52 60 43 55 59 52 41 38 30 28 26 21 18 20
82 81 80 80 82 83 82 83 88 89 92 89 88 89 88 88 89 90 98 98 82 81 88 66 66 68 64 63 75 57 48 58 59 66 60 48 64 53 47 46 39 40 44 44 32 27 27
82 82 81 78 78 81 80 81 86 86 89 90 89 90 89 88 90 89 98 84 88 89 95 70 67 66 60 57 70 65 56 55 63 61 65 64 53 48 56 57 52 49 52 48 44 34 27
85 84 83 81 80 82 83 84 84 86 87 90 90 90 90 91 87 89 91 79 88 85 87 64 76 64 59 55 66 48 49 57 65 67 58 64 51 52 56 60 56 67 47 47 47 44 51
84 84 84 83 85 87 86 86 84 83 85 88 88 92 91 91 94 94 81 92 91 88 78 47 68 48 56 63 57 59 45 57 73 65 56 60 53 58 57 51 50 55 42 43 41 43 43
81 80 82 81 85 87 86 85 84 82 84 86 87 87 88 96 97 88 90 93 88 90 88 48 62 77 79 68 65 63 64 54 58 72 68 66 48 47 46 46 45 41 42 38 36 40 54
78 80 80 80 79 80 81 82 82 80 79 80 84 86 90 94 93 92 95 92 98 96 44 46 63 78 79 80 77 69 82 80 81 96 94 70 69 53 46 55 53 47 52 91 76 60 58
75 79 80 80 87 87 81 79 80 80 78 76 80 84 86 94 96 98 95 99 98 56 55 43 42 75 84 75 78 74 87 86 76 74 71 81 82 65 49 51 54 65 62 81 79 58 46
70 74 75 77 82 88 88 87 85 77 78 77 76 93 95 93 96 99 99 99 86 62 59 68 46 47 46 70 66 74 82 82 72 74 80 80 74 51 47 42 43 62 76 54 82 79 76
67 70 71 75 80 81 89 87 88 81 75 79 93 94 92 86 98 97 100 97 75 68 61 63 66 50 51 40 69 72 61 62 67 69 68 61 77 63 53 44 44 55 50 81 95 96 88
66 70 71 73 80 82 81 82 84 72 75 82 94 92 82 89 97 99 99 98 79 61 57 65 78 80 66 62 50 50 54 49 58 58 69 59 70 81 77 67 58 62 74 93 94 92 67
70 68 71 70 76 79 79 76 73 73 80 82 97 98 84 95 100 100 99 80 71 66 57 63 61 72 84 70 62 52 51 48 46 47 64 78 79 99 93 74 74 67 81 92 99 100 94
72 70 70 66 69 79 78 76 74 74 78 97 98 95 88 98 97 93 85 87 97 72 58 76 92 66 57 95 85 71 59 57 62 57 59 73 90 98 95 86 85 91 84 89 96 100 99
74 74 69 65 64 71 81 82 78 76 77 92 98 96 94 98 92 88 76 80 88 84 93 69 67 65 92 98 96 97 94 72 61 61 79 72 94 99 93 85 84 93 85 86 94 99 97
77 78 76 72 71 71 75 80 79 76 76 91 97 94 81 97 92 93 95 94 73 76 67 71 92 69 64 68 68 99 90 76 70 65 72 80 99 98 96 95 98 96 87 74 100 97 99
77 78 78 77 76 74 73 78 83 78 78 99 99 96 91 88 83 89 76 73 81 78 96 94 92 67 73 79 66 63 65 96 99 85 92 79 85 93 96 72 84 100 88 87 80 81 83
77 78 78 77 77 73 73 76 82 80 86 100 98 88 90 76 77 71 77 72 64 90 95 90 94 93 79 65 67 65 60 62 63 72 84 99 98 98 78 70 83 100 90 82 70 62 62
83 79 79 80 78 75 75 75 80 80 78 96 96 95 90 86 80 72 58 58 63 61 85 70 69 90 75 59 84 69 72 71 69 72 76 99 99 100 96 91 96 68 53 58 69 63 52
87 86 81 80 80 76 77 76 78 79 77 94 97 93 93 88 62 60 66 62 55 55 60 56 50 46 50 71 99 95 92 84 69 72 87 86 88 95 97 93 68 48 54 63 71 56 50
85 86 87 82 82 79 79 78 77 77 78 90 96 94 92 91 74 50 59 58 69 75 73 62 59 58 79 90 98 96 88 72 72 67 62 81 76 83 88 93 76 52 43 48 45 70 47
83 85 86 88 84 82 80 78 77 77 76 86 94 86 90 95 74 67 79 72 79 85 86 80 79 82 86 88 98 92 91 59 68 67 86 95 96 96 87 90 72 47 42 48 70 56 48
84 84 84 85 90 86 83 81 80 79 79 87 89 83 70 94 77 73 65 79 86 83 82 74 75 89 93 98 86 84 96 86 76 56 63 78 89 94 89 90 78 50 50 58 50 56 45
85 84 86 85 86 90 85 84 83 81 81 84 98 82 71 93 88 74 68 61 57 59 79 80 76 86 92 92 97 95 97 98 93 83 86 76 64 70 66 61 66 58 58 54 50 47 47

GFSGBSN_sfc_rhum_162.txt.gz
RH
86 85 85 85 87 84 85 89 92 95 96 98 98 96 94 94 93 92 92 92 92 92 93 93 91 91 60 46 34 18 66 51 29 29 28 28 28 20 18 15 14 15 13 11 10 11 10
87 86 86 86 87 85 84 87 92 94 93 93 94 94 95 96 96 94 93 94 94 94 93 94 92 92 66 70 27 27 31 32 27 29 27 27 26 25 25 21 17 14 14 13 12 11 11
82 83 85 88 88 87 84 86 86 87 88 90 92 93 94 93 93 94 94 95 96 95 95 96 95 73 83 66 32 28 31 33 32 34 33 24 26 27 24 22 18 17 19 15 13 12 12
80 80 81 87 91 91 90 86 85 84 82 82 83 85 91 92 93 93 93 92 91 90 90 90 94 87 94 44 35 38 36 38 34 38 40 34 30 31 27 25 26 22 20 22 12 13 12
83 84 84 86 89 91 92 91 86 84 85 85 85 86 88 90 93 93 93 93 92 90 89 88 83 84 75 48 51 39 38 44 40 39 42 39 40 37 30 35 30 23 22 18 16 13 12
79 83 85 87 88 90 88 91 91 85 84 88 86 84 90 93 94 95 95 94 85 88 82 71 76 96 77 46 42 42 36 43 47 46 50 51 42 40 36 29 30 22 21 20 18 13 15
79 81 84 85 87 85 82 82 89 89 89 89 86 86 87 90 90 93 91 83 72 74 87 58 71 68 50 46 43 41 39 42 41 45 48 45 43 39 30 28 24 21 24 24 18 14 18
83 83 82 82 83 83 82 82 87 90 90 90 88 87 85 85 85 87 80 82 74 80 73 52 58 58 50 43 54 41 37 47 47 49 40 43 47 29 26 24 29 31 32 32 26 24 26
83 83 81 79 80 81 80 82 84 88 90 92 90 88 86 86 88 76 67 75 60 62 72 51 46 45 43 39 50 47 36 39 48 48 44 49 34 30 33 36 41 39 39 36 34 29 27
84 86 84 80 80 81 83 83 82 85 86 88 90 89 88 89 84 58 64 60 59 68 64 27 47 44 42 42 50 33 33 40 43 52 46 44 34 36 39 41 38 48 33 38 40 39 41
79 82 85 83 82 82 82 85 84 84 83 83 86 90 90 92 73 71 56 57 69 71 68 24 46 36 43 49 44 47 33 40 53 44 47 50 42 44 46 41 39 44 36 38 41 41 40
77 78 79 82 84 83 82 82 84 83 84 84 85 85 92 84 76 60 68 72 78 82 70 23 44 56 60 53 47 51 49 40 42 54 54 51 35 40 40 40 40 38 44 43 41 44 55
75 76 76 80 82 82 81 80 83 84 84 84 85 86 83 68 66 62 79 84 94 73 22 17 35 53 54 51 55 52 67 67 64 90 86 54 54 40 42 50 44 48 64 95 90 73 57
72 74 76 78 80 80 82 82 80 81 82 81 81 82 79 65 67 75 88 97 99 33 32 26 32 41 52 47 54 52 57 78 60 52 48 55 53 40 38 50 60 56 69 72 72 58 39
65 70 75 78 80 83 83 87 90 88 80 80 78 60 61 60 73 88 100 100 67 36 26 39 24 40 38 39 43 50 52 53 46 50 62 48 42 34 38 36 44 64 79 55 82 73 67
67 69 71 78 80 82 85 83 84 89 90 81 55 63 52 57 77 90 100 97 83 46 45 46 42 26 30 26 42 42 38 37 42 41 45 47 74 43 40 39 40 56 55 94 98 98 88
66 68 69 74 77 82 82 85 78 83 88 87 82 71 51 62 79 92 99 87 68 55 59 61 48 47 39 45 36 30 32 26 35 37 42 48 68 80 58 58 50 56 75 90 95 83 81
70 70 70 72 76 77 80 79 77 85 86 93 92 97 67 78 92 100 100 74 80 52 56 69 58 60 54 53 56 44 34 28 47 41 39 34 59 76 62 47 65 72 86 87 100 100 88
74 72 71 72 72 74 76 78 80 86 81 92 85 74 71 97 92 95 59 65 90 74 72 92 63 49 39 44 63 46 49 55 58 56 48 35 52 67 65 68 77 75 64 88 93 100 100
75 77 74 69 68 70 71 74 80 84 78 84 96 96 81 95 71 68 55 55 52 86 87 63 92 55 63 90 80 92 88 66 66 64 79 67 55 67 56 64 91 97 93 92 98 100 100
75 75 77 76 72 71 71 74 80 85 78 75 97 90 55 92 81 79 74 58 48 49 46 56 94 68 68 77 84 87 60 71 82 83 85 93 96 80 77 61 70 80 78 74 99 96 100
77 77 77 78 76 74 74 74 80 84 86 98 97 89 68 62 58 70 66 70 63 48 89 88 97 68 97 84 56 63 67 58 65 67 76 95 99 90 100 52 46 72 66 55 74 88 93
79 78 80 80 80 76 75 76 80 85 90 100 94 64 67 60 59 61 64 61 52 58 45 80 96 81 78 95 73 60 66 59 60 62 66 80 97 79 77 51 49 83 68 64 52 50 53
86 81 80 81 80 78 78 76 81 84 84 70 68 54 64 71 59 59 47 43 49 45 68 50 59 84 59 51 36 48 57 61 56 52 58 84 97 86 73 57 89 61 39 44 50 42 35
84 84 85 81 81 78 78 78 78 81 86 85 64 51 78 74 44 48 50 46 40 40 46 46 39 34 33 45 67 93 77 71 58 50 50 60 71 79 76 61 50 35 34 43 50 40 30
82 84 83 85 82 80 78 77 78 78 83 84 64 51 54 74 51 40 43 42 54 54 49 44 38 50 56 57 60 85 72 54 54 45 40 50 70 73 66 79 73 34 27 35 39 70 28
83 83 83 85 84 82 79 77 79 78 77 78 72 63 56 84 45 46 58 52 46 51 52 41 44 53 57 81 79 72 64 47 74 52 67 76 96 91 74 70 43 25 20 27 60 48 27
84 83 85 83 86 84 82 78 79 78 74 82 69 60 54 78 51 52 44 52 47 48 57 47 57 58 72 82 67 68 74 62 77 50 49 65 85 85 76 80 75 22 25 48 35 31 34
86 84 84 86 85 87 82 81 81 80 76 78 89 61 51 72 62 56 49 42 40 40 52 52 57 61 67 81 87 77 86 80 89 81 38 62 50 53 52 49 40 45 41 38 43 44 38

GFSGBSN_sfc_rhum_168.txt.gz
RH
91 90 89 88 86 86 85 87 88 90 91 92 93 94 94 95 96 96 96 95 94 93 92 92 93 94 71 55 43 20 73 55 25 19 19 19 22 20 21 16 14 14 10 9 9 8 8
92 90 88 86 86 85 85 86 89 90 90 90 91 91 91 91 90 91 94 96 97 95 95 94 93 96 77 86 32 25 19 18 21 23 24 20 21 20 21 22 22 18 16 13 11 10 9
91 90 89 89 88 87 87 88 89 89 89 88 88 88 88 88 88 89 90 91 90 90 90 89 90 79 92 76 35 29 31 31 27 28 33 28 25 24 22 24 18 18 20 17 15 12 12
90 88 86 89 91 92 90 87 85 84 82 80 78 80 82 82 84 88 90 90 90 89 87 87 86 70 95 49 40 39 36 34 28 27 30 29 29 32 31 24 24 25 25 27 16 14 13
90 88 84 89 91 92 92 90 87 84 81 81 82 82 85 85 88 90 90 91 90 86 84 83 71 71 72 37 46 38 35 37 31 27 30 27 31 38 36 38 36 29 33 26 19 13 14
86 86 86 88 90 90 89 90 92 88 85 82 81 83 81 85 87 90 89 90 75 80 69 51 53 81 59 44 30 27 26 29 32 32 34 38 40 42 39 38 44 31 26 22 22 15 14
85 85 87 88 90 87 84 85 91 92 90 83 82 83 82 82 80 85 76 54 58 64 65 58 55 56 32 28 28 30 26 31 33 37 48 38 50 54 39 33 32 29 29 28 22 17 16
85 85 86 87 86 84 82 84 88 92 92 85 86 84 80 78 79 82 69 53 44 60 72 47 56 45 39 36 44 33 27 40 41 51 40 44 48 38 32 30 32 31 32 32 25 20 19
85 85 84 83 80 83 82 84 88 91 91 89 89 89 81 79 82 77 54 46 33 41 62 37 28 35 37 31 41 37 30 34 45 46 41 47 38 31 34 36 36 34 35 32 28 22 20
85 85 85 80 78 80 82 83 83 84 87 89 90 90 87 82 83 46 44 34 34 48 60 22 14 19 18 21 32 23 26 32 36 43 40 42 32 31 31 33 32 48 32 28 28 34 45
86 84 83 83 82 84 83 82 81 79 80 82 84 86 89 92 64 50 45 42 45 66 77 12 13 12 19 23 24 23 20 30 42 41 40 48 39 35 35 31 28 38 32 32 40 53 60
82 81 80 81 85 86 84 83 83 82 81 81 83 84 88 74 66 49 45 53 72 85 77 24 16 26 28 27 25 26 36 25 30 39 38 38 29 30 29 26 27 32 39 54 61 82 97
81 80 79 80 81 83 86 86 85 83 83 82 82 82 80 47 56 44 59 70 93 95 25 23 20 24 27 27 29 26 32 39 45 54 53 40 37 30 29 37 36 37 50 88 92 91 85
78 78 77 76 78 80 81 86 86 85 85 84 83 82 70 49 44 53 78 97 99 42 37 16 15 17 22 26 28 30 33 39 36 38 39 46 53 33 31 36 41 42 51 72 79 73 54
77 74 74 74 74 76 82 85 86 84 84 84 84 65 60 58 58 71 94 100 91 45 25 25 41 37 32 20 22 24 36 48 33 38 51 47 45 27 20 25 32 44 63 45 69 61 71
70 70 72 76 76 78 81 84 86 85 87 84 69 81 64 56 67 85 100 98 75 41 34 46 78 40 41 28 25 22 21 24 37 36 68 62 75 32 26 35 36 45 36 71 83 97 92
70 71 71 76 77 80 82 83 85 86 86 82 95 99 67 58 82 98 99 94 58 39 37 81 84 60 44 45 45 43 42 30 62 53 48 64 87 68 46 49 57 62 79 77 94 94 75
72 73 74 76 76 77 78 79 82 86 86 79 98 100 56 78 100 100 99 64 53 39 38 67 69 55 50 48 51 48 53 82 53 57 71 69 93 84 78 63 44 54 72 70 100 100 99
76 75 73 73 74 76 78 78 82 84 84 98 100 86 61 94 99 99 62 52 48 51 38 96 90 94 84 70 84 52 53 83 66 70 79 68 71 87 62 69 57 68 62 80 99 100 100
77 78 76 72 74 75 76 77 79 84 85 96 100 100 90 95 95 99 64 53 50 37 42 41 91 64 57 56 52 91 75 62 71 58 72 59 63 83 96 95 65 84 66 66 96 100 86
75 79 79 78 77 76 76 76 78 87 88 97 100 97 81 99 96 92 82 87 57 52 56 80 61 51 50 75 60 68 71 68 60 73 58 61 66 72 68 56 44 46 47 68 98 88 98
78 77 79 80 79 78 76 78 79 84 87 98 100 98 67 94 58 79 74 93 64 49 64 75 85 68 74 88 91 94 86 70 82 71 62 68 79 79 82 43 40 53 51 49 52 82 76
81 79 77 79 78 78 78 78 78 82 85 100 96 82 93 78 66 76 84 69 56 51 49 48 52 62 56 59 85 72 49 47 55 65 64 97 91 82 70 43 49 74 53 44 61 38 43
82 82 80 78 79 78 77 78 78 78 79 64 67 75 94 86 65 74 49 64 55 43 63 33 36 50 39 51 45 36 34 39 43 44 47 70 82 78 77 60 87 43 27 45 65 68 49
83 83 82 81 79 79 78 77 78 79 84 82 76 83 93 78 53 54 59 69 51 39 48 44 30 30 29 36 54 57 62 51 42 38 41 50 66 85 80 62 54 41 31 32 37 65 38
84 84 82 82 81 80 80 79 79 79 86 82 87 79 82 90 56 49 54 46 52 54 47 39 32 32 35 40 62 72 63 52 72 42 30 38 55 75 81 74 68 38 23 22 29 72 34
82 83 83 82 83 82 81 80 80 79 83 84 76 79 92 95 45 50 69 63 46 41 41 32 46 53 42 75 80 74 62 39 57 49 53 86 96 96 88 83 55 29 26 25 79 58 35
84 85 84 82 83 82 83 81 80 80 84 87 74 66 77 75 48 37 37 38 32 32 49 41 58 68 71 82 71 74 71 61 56 42 43 47 69 81 94 96 86 32 41 47 49 48 38
86 86 86 83 84 85 87 82 81 80 82 84 85 66 60 87 65 50 42 32 30 31 44 54 69 57 89 87 80 88 90 82 79 75 35 55 67 96 97 93 65 62 40 51 70 54 52

GFSGBSN_sfc_rhum_171.txt.gz
RH
94 95 95 94 92 92 90 89 90 91 92 93 94 94 92 91 92 94 95 96 96 95 94 94 93 92 83 77 64 36 71 62 47 30 28 26 27 29 34 27 26 28 25 21 19 18 15
95 94 94 92 91 90 88 89 90 92 92 92 92 92 92 90 89 90 92 92 92 93 94 94 94 94 88 93 45 39 35 36 29 27 30 32 35 32 32 30 31 26 24 23 20 19 18
94 93 92 92 91 90 90 91 92 91 90 89 89 89 87 86 87 89 90 90 89 89 88 87 88 81 94 82 49 46 45 49 45 44 46 37 36 42 40 42 30 27 34 28 26 24 22
94 93 92 92 92 92 92 92 91 89 87 84 81 84 86 85 86 87 89 90 90 88 86 88 88 86 92 53 56 58 56 56 46 43 42 37 36 44 48 42 43 43 38 43 29 24 21
93 92 91 91 92 93 93 91 90 87 85 83 84 86 87 86 88 89 89 89 88 88 87 84 89 90 85 50 62 54 52 53 44 39 36 31 38 49 51 60 66 55 61 44 34 24 21
92 92 90 91 91 92 93 92 92 90 88 87 83 86 86 88 88 87 88 87 81 84 78 62 62 86 69 49 36 40 39 42 45 43 41 46 55 65 65 70 84 65 53 45 39 26 23
92 92 89 90 90 90 87 89 93 93 91 88 82 84 85 87 84 84 87 79 87 94 77 80 73 70 46 43 36 35 31 36 40 47 61 52 68 80 67 56 53 47 45 44 35 28 31
93 92 90 88 90 89 86 86 92 93 93 90 86 88 85 84 83 85 92 84 62 72 85 60 67 62 53 48 58 44 37 47 49 61 55 60 71 54 50 47 47 46 47 47 36 30 31
93 92 90 88 88 88 87 87 91 92 93 90 89 91 86 84 86 92 82 65 47 50 77 54 46 50 54 54 64 55 44 45 52 58 57 66 55 44 45 47 48 48 49 46 45 36 32
88 86 85 84 86 86 86 86 89 91 92 91 90 91 88 86 90 77 69 55 50 59 94 43 32 32 32 37 47 37 39 45 47 57 56 56 42 43 44 46 41 54 39 40 41 47 61
84 83 84 86 85 86 87 87 86 86 88 89 90 90 90 86 94 80 60 62 71 82 90 21 17 15 20 30 27 27 27 40 53 51 51 57 47 47 47 43 38 42 34 37 41 75 88
88 86 84 83 85 87 86 85 85 84 83 84 86 88 90 91 94 76 60 69 83 95 93 35 21 27 29 27 26 27 31 27 36 47 48 50 38 41 43 39 38 34 38 52 61 85 96
88 88 86 86 87 87 86 85 84 84 83 83 85 86 91 63 79 62 72 84 98 97 30 29 25 22 30 34 30 28 34 44 49 64 64 51 50 41 38 48 40 42 52 95 97 99 82
88 87 85 85 85 85 86 88 87 85 84 84 85 85 86 70 72 67 90 98 99 52 46 27 32 37 39 32 31 32 37 42 41 44 53 67 72 45 38 46 50 51 52 81 80 77 61
89 84 83 82 82 82 84 85 88 87 86 85 84 93 93 83 75 83 96 99 96 68 36 39 61 51 46 32 32 32 33 42 41 36 66 72 58 36 33 34 39 50 65 47 74 64 80
88 86 85 81 80 80 83 85 87 88 88 85 93 94 86 73 85 94 99 94 84 55 48 48 91 68 62 46 51 47 46 43 56 48 73 88 99 66 50 44 48 48 45 71 74 96 94
82 82 83 82 81 80 82 84 86 88 87 82 98 99 87 76 89 98 99 94 68 59 52 57 88 90 69 65 59 66 60 69 70 62 61 87 95 81 64 62 58 59 72 82 89 96 96
76 76 76 76 78 80 82 84 85 89 86 84 98 99 76 89 99 100 98 86 62 54 46 68 90 76 77 75 83 66 78 60 70 76 92 84 98 99 79 57 62 70 86 94 100 99 100
75 75 76 76 78 81 82 83 84 87 83 97 99 95 79 91 98 97 94 92 72 59 49 98 99 90 75 77 86 71 80 66 85 88 96 94 96 95 77 68 72 94 94 92 99 100 99
77 78 76 75 76 78 80 82 84 84 84 95 100 100 96 97 94 92 84 86 80 63 54 54 96 94 99 92 68 88 69 50 63 66 89 88 90 98 97 86 81 92 68 63 95 99 100
77 77 79 79 77 76 78 79 80 80 83 97 100 99 86 99 94 94 89 89 91 95 64 85 96 86 67 84 72 71 72 69 58 74 88 96 99 74 73 58 58 67 57 61 69 77 99
81 79 78 80 80 78 78 78 80 80 85 99 100 100 91 93 86 88 87 81 80 85 97 100 96 99 79 90 91 87 84 71 70 70 75 89 98 95 92 56 51 60 50 51 50 51 59
82 82 80 79 80 80 79 79 80 84 84 100 100 92 99 83 83 89 95 86 85 77 98 72 70 69 68 74 83 76 73 68 62 63 67 93 97 97 84 53 60 80 62 50 40 36 55
83 83 83 80 80 80 79 79 80 84 80 95 95 92 99 97 90 88 68 74 80 78 92 52 55 61 66 59 62 64 59 49 49 47 49 75 90 87 93 74 90 51 40 37 45 42 49
85 84 83 83 81 81 78 79 80 80 83 90 90 94 99 99 83 72 70 74 62 61 70 68 58 45 49 58 73 77 80 60 53 45 48 54 71 89 97 89 65 42 38 40 38 39 35
88 80 84 83 82 82 80 78 79 78 82 81 94 92 96 100 93 84 87 77 85 82 67 58 48 50 51 59 86 88 82 59 64 53 43 45 58 80 98 97 84 53 32 53 49 68 54
89 85 84 84 83 82 83 79 79 79 81 88 96 89 96 100 76 66 90 82 64 78 80 54 59 67 63 94 96 95 83 46 64 62 64 84 96 95 94 91 77 48 49 33 72 83 61
88 86 86 76 84 82 83 84 80 80 81 88 90 91 94 100 78 58 53 75 64 72 84 69 80 84 92 94 96 92 94 85 77 56 58 66 84 96 96 97 92 70 82 95 95 75 71
88 86 85 82 84 83 83 85 79 81 82 83 95 80 89 97 88 68 68 58 61 49 66 74 83 92 95 97 99 98 96 95 90 95 56 84 87 98 92 92 73 71 66 62 81 76 85

GFSGBSN_sfc_rhum_177.txt.gz
RH
90 89 90 93 94 94 93 93 94 95 96 97 96 95 94 92 91 93 93 92 92 93 93 93 93 94 90 86 68 42 72 66 54 54 48 40 42 41 45 45 52 50 40 34 32 32 30
91 90 91 92 94 94 94 94 96 97 95 94 95 94 94 92 90 90 90 90 89 89 88 86 84 90 92 94 46 47 49 52 51 50 46 48 46 50 55 57 51 43 52 48 42 37 34
90 90 91 92 93 94 95 97 95 94 94 94 94 93 92 91 88 86 87 88 88 88 87 84 84 85 94 78 56 59 56 62 61 60 61 56 54 60 59 64 54 52 65 55 50 45 39
90 90 90 92 92 94 96 96 94 94 94 94 93 91 88 85 83 85 85 86 87 87 86 85 87 92 96 57 64 63 67 68 61 59 59 54 54 62 64 58 61 70 71 80 49 37 31
91 91 90 92 94 95 97 96 95 94 94 93 90 89 87 84 84 84 85 85 86 83 84 85 93 96 87 58 67 59 60 68 60 60 64 48 62 69 67 82 89 84 88 83 65 42 41
93 93 92 93 95 96 96 95 95 94 93 90 89 89 87 85 85 84 83 85 80 82 76 72 74 86 76 48 50 47 62 61 64 63 63 68 73 86 88 86 80 84 94 88 74 48 42
93 94 94 95 96 96 95 95 95 92 91 90 89 89 87 87 83 85 83 84 82 85 93 74 76 67 56 52 42 47 45 51 65 69 77 72 89 95 80 70 63 72 77 79 66 47 50
93 93 95 94 96 95 94 94 94 93 91 90 88 90 88 86 82 86 90 74 75 66 84 69 71 72 54 55 67 41 42 50 71 83 77 79 86 65 66 66 72 74 83 82 66 56 58
94 95 95 95 96 96 94 94 95 95 94 91 89 90 88 86 84 85 81 72 61 69 89 64 68 71 64 61 70 59 54 52 58 74 77 82 64 55 64 70 77 77 83 79 75 66 59
95 96 96 96 97 96 94 94 94 94 94 92 90 91 88 86 79 86 86 68 76 57 55 36 52 48 50 61 70 55 46 48 64 50 72 77 61 58 56 71 69 86 60 66 72 79 89
98 97 97 96 95 94 94 93 94 94 94 92 91 92 91 78 91 89 67 72 77 55 63 28 34 34 47 59 40 42 47 54 61 65 70 61 72 72 71 64 55 71 60 60 65 73 72
98 98 97 96 95 94 94 94 93 93 94 94 92 92 92 92 94 78 75 77 76 70 59 40 36 46 48 47 41 38 56 54 53 61 56 59 48 55 58 54 57 51 57 58 62 71 88
98 98 96 96 96 96 95 94 92 92 91 91 91 92 87 82 83 73 73 83 87 85 38 42 44 45 45 43 38 35 51 71 63 86 88 65 56 42 40 54 49 54 68 91 89 85 78
97 97 97 96 96 95 93 91 88 86 87 84 84 92 87 77 78 75 87 90 99 58 63 42 50 49 46 40 43 48 42 49 57 57 58 64 66 44 49 55 46 62 62 84 83 75 55
95 96 96 95 92 90 90 89 88 86 87 86 93 99 98 95 79 83 92 99 86 65 49 58 50 64 66 57 56 62 64 85 82 85 86 91 72 56 57 59 52 64 71 51 76 68 77
95 95 96 95 93 92 92 92 90 87 86 90 99 98 97 95 89 93 99 84 79 58 50 56 75 69 80 69 61 68 66 83 84 76 83 95 100 80 72 60 60 66 58 85 82 96 92
95 94 95 94 94 93 92 90 88 88 91 86 97 98 88 93 92 98 98 91 66 46 47 62 59 67 70 83 70 71 65 87 88 87 79 98 98 90 76 73 86 83 80 86 91 96 89
93 95 94 92 92 91 90 87 85 84 86 83 96 98 79 92 99 100 99 76 64 56 56 61 70 64 68 62 62 63 60 55 72 81 87 97 96 97 76 50 62 83 100 100 98 96 98
92 92 90 92 91 88 84 81 81 85 77 95 98 96 93 94 98 98 84 68 67 67 67 76 79 75 76 87 93 77 81 84 72 75 90 82 95 95 68 80 82 95 97 100 100 99 97
84 88 88 90 90 89 86 83 82 84 81 96 100 99 100 100 94 85 84 82 84 79 84 73 96 89 98 98 93 96 91 66 72 65 62 78 91 88 84 73 77 83 70 83 100 98 98
72 80 85 85 89 88 86 84 84 85 86 96 100 98 88 98 98 93 84 89 81 84 76 87 86 87 87 98 86 92 80 74 66 68 77 92 98 88 80 70 63 82 76 72 74 72 95
79 78 78 80 81 84 84 83 85 85 91 99 99 99 97 92 78 98 88 90 87 77 84 89 91 88 93 95 83 85 90 83 73 81 90 93 84 90 89 48 58 76 70 64 49 48 54
74 78 80 80 78 77 77 78 82 83 91 100 100 96 92 87 94 90 84 79 75 75 77 69 79 95 99 94 99 86 69 66 58 76 76 94 98 98 84 46 62 85 51 37 41 40 46
76 76 78 81 82 78 79 78 78 79 84 96 97 98 96 99 90 89 76 80 79 88 92 94 88 95 70 79 78 74 76 80 81 79 67 74 97 95 94 71 99 48 42 41 50 51 81
80 79 77 80 83 82 80 80 78 78 84 85 94 98 98 99 88 84 81 86 80 80 93 89 91 80 67 61 74 74 77 59 60 81 83 78 79 94 98 90 62 49 61 84 84 79 87
84 83 80 83 83 85 82 80 80 79 80 89 96 94 95 97 92 78 82 82 91 97 94 82 70 71 57 64 83 86 84 59 60 47 41 67 77 91 97 97 92 76 82 74 72 90 70
84 84 86 82 85 85 84 81 81 80 80 87 96 91 95 95 86 92 95 91 78 86 89 68 68 70 64 95 95 95 88 59 69 51 51 81 93 97 92 90 79 95 96 77 82 90 83
88 86 88 87 87 86 85 82 81 81 81 80 95 94 93 98 92 88 91 82 79 75 86 72 78 80 93 92 94 96 97 87 88 61 61 72 90 94 97 94 95 77 78 87 85 84 86
88 88 88 88 88 86 86 83 81 83 83 72 97 94 95 95 91 89 79 79 68 56 70 78 72 83 89 96 99 99 100 100 94 89 64 84 82 92 81 82 59 90 80 71 73 81 65